Wind_Speed
17 18 18 16 15 14 13 13 12 12 13 13 13 13 13 13 12 12 10 10 13 14 15 15 17 16 12 10 9 14 17 15 12 11 12 9 10 11 9 7 6 10 10 8 7
19 19 19 19 18 17 16 15 15 15 15 15 15 14 13 12 12 11 9 11 11 13 16 17 15 11 8 6 6 11 15 17 19 19 11 10 11 11 9 6 4 7 8 8 8
19 19 19 19 19 18 17 16 16 16 16 16 16 14 12 12 11 10 10 10 11 12 13 15 13 9 7 4 4 8 13 15 13 11 15 10 12 13 12 7 6 6 7 9 7
20 19 19 18 19 18 17 16 16 16 15 15 15 14 12 11 10 10 10 10 10 11 13 14 11 6 3 2 2 5 9 10 15 12 14 12 14 17 15 9 7 5 6 9 8
21 20 19 18 19 18 18 17 16 16 14 15 15 15 12 11 10 11 11 10 10 9 12 11 8 3 4 8 7 8 8 8 12 8 15 16 14 17 15 11 7 5 4 7 8
22 21 20 20 20 19 19 18 17 16 15 14 14 14 12 12 11 13 12 10 9 9 9 9 6 1 3 5 7 6 9 10 9 8 13 13 11 13 14 10 6 2 3 4 8
22 21 20 20 21 21 20 20 18 17 15 14 15 15 10 13 12 13 13 10 8 8 7 9 8 6 7 3 5 8 8 11 13 7 9 10 6 6 8 8 6 2 3 4 7
24 23 21 20 20 21 21 21 19 19 17 15 16 15 9 12 10 10 12 10 8 6 7 6 6 4 5 6 1 3 4 12 25 10 6 7 5 5 3 1 4 5 5 5 6
26 26 25 23 23 21 20 18 19 18 18 17 17 17 10 10 7 8 9 9 8 7 7 5 2 8 6 4 3 4 3 13 20 21 12 13 7 6 8 3 2 9 9 3 2
28 27 26 25 25 23 21 20 19 17 17 17 18 17 10 10 8 11 9 8 8 7 7 3 2 9 6 6 5 7 0 12 18 19 19 22 6 6 7 4 1 7 12 6 1
29 29 29 28 27 25 23 23 22 19 19 18 17 17 14 13 11 12 11 9 8 7 6 4 5 7 7 8 6 5 2 7 15 20 21 22 18 11 6 8 3 3 3 6 5
29 30 29 28 29 28 26 24 23 22 22 20 19 20 16 16 15 13 13 11 9 9 8 4 7 8 10 10 7 11 8 4 10 14 17 16 17 16 5 6 4 4 2 3 4
28 29 30 28 29 28 28 27 25 24 22 24 22 23 20 19 20 17 17 15 13 11 8 7 13 10 13 18 14 14 13 6 2 8 11 12 13 16 1 7 9 7 5 5 5
27 28 29 28 29 28 29 28 26 25 22 24 26 25 25 22 24 22 19 18 16 15 12 14 15 12 15 17 15 15 17 11 4 4 5 10 11 16 19 7 7 11 8 3 4
27 28 29 29 28 29 29 28 26 25 24 25 27 27 28 26 25 25 21 21 19 21 14 13 15 16 16 16 18 20 22 17 10 5 1 5 10 14 16 6 11 14 9 8 8
21 23 24 27 26 29 30 28 27 25 26 27 28 28 27 28 28 27 24 25 24 23 17 20 19 12 12 16 15 17 19 16 10 6 4 1 7 10 10 1 7 7 7 9 10
19 21 23 23 24 25 26 27 28 27 27 28 29 29 27 26 28 28 28 26 25 22 18 23 22 15 13 15 15 17 18 14 9 8 7 5 3 10 10 1 12 11 12 13 13
15 20 20 19 23 23 24 24 24 27 28 30 27 30 29 29 29 27 29 27 25 24 25 25 23 19 16 15 23 22 18 16 13 10 9 3 0 4 4 7 13 10 11 15 16
14 13 14 19 20 19 21 22 25 26 27 29 28 32 32 32 29 28 28 27 29 28 28 24 21 22 20 21 27 26 20 17 14 13 9 2 2 1 3 7 7 1 8 16 17
9 10 13 14 15 19 20 20 23 27 30 30 30 33 34 34 32 29 26 29 28 31 31 27 25 26 27 28 27 25 23 18 15 15 11 6 7 4 5 9 9 8 10 8 9
10 10 10 10 13 16 19 21 24 26 30 32 33 33 34 33 32 27 27 26 30 32 33 30 30 28 28 28 28 28 22 20 16 14 14 10 10 8 10 6 6 1 6 4 8
12 13 13 14 14 14 15 19 23 28 30 34 36 35 35 35 32 29 26 27 27 31 33 31 31 30 28 31 34 27 22 24 24 17 13 15 13 13 15 7 6 6 4 9 4
11 13 15 17 18 18 19 20 21 27 28 36 39 40 38 36 33 30 27 26 29 28 28 28 29 29 33 35 36 30 27 28 27 23 19 18 15 16 15 12 11 8 7 11 4
11 13 16 18 17 19 22 23 24 24 28 35 43 42 44 38 35 31 26 24 29 30 26 25 27 28 32 33 34 32 31 31 32 29 24 21 17 17 18 18 16 15 11 11 10
13 14 16 17 18 18 17 15 19 23 29 33 40 44 43 44 36 33 30 28 26 25 29 27 28 28 29 32 35 35 32 30 31 29 27 25 21 16 19 21 18 19 14 12 12
16 16 17 18 18 18 17 17 17 23 27 32 37 42 43 46 44 37 32 36 30 28 27 27 26 27 27 30 36 36 38 34 33 31 28 28 26 22 21 18 18 19 19 17 9
17 19 18 17 19 20 18 19 18 22 27 30 37 38 40 43 42 39 40 40 39 37 31 29 30 30 33 32 32 32 33 35 38 37 35 31 28 28 22 23 22 23 24 23 21
Wind_Direction
234 238 242 242 246 255 265 276 285 293 300 304 308 316 317 323 328 340 2 359 6 1 360 8 30 47 40 30 41 51 51 52 44 48 28 70 95 98 79 69 63 74 77 85 106
232 235 240 243 246 251 258 267 274 280 286 293 297 302 307 312 322 335 343 346 355 359 356 11 28 37 43 40 33 48 48 45 59 54 49 62 71 85 96 95 79 73 88 95 107
233 233 235 240 245 248 251 258 265 271 277 283 288 293 297 303 312 314 323 336 348 356 1 16 22 20 58 73 46 69 60 54 41 38 29 49 78 86 96 111 87 75 77 97 104
236 235 236 238 243 246 249 251 256 262 268 277 282 285 290 293 300 301 313 324 340 353 3 27 20 13 89 3 69 106 79 60 51 40 51 49 58 74 80 83 83 68 69 78 97
241 241 241 242 244 247 249 250 252 257 262 269 276 280 285 286 289 294 304 316 325 340 6 31 36 359 27 338 48 60 58 70 68 64 55 52 51 71 78 81 77 71 57 87 94
242 244 246 249 250 251 250 251 252 256 258 263 270 276 283 283 283 285 291 300 316 327 9 13 20 7 49 37 95 62 59 61 57 78 70 67 56 71 76 74 75 81 96 103 107
246 246 248 250 251 253 254 255 255 256 257 259 265 272 283 272 279 285 285 290 304 321 343 10 2 11 44 104 117 82 74 46 37 60 80 66 49 47 70 64 72 326 173 151 122
249 248 251 253 255 255 255 256 258 257 254 253 258 263 261 272 285 286 288 292 298 309 316 12 12 88 148 163 23 337 61 50 36 40 57 46 5 352 354 35 105 141 198 176 139
251 251 252 254 256 256 256 258 259 258 256 251 252 257 244 259 267 262 275 292 291 297 317 5 36 158 167 187 257 337 15 44 45 47 38 24 13 316 322 301 160 137 167 216 100
257 254 254 255 256 256 257 257 258 259 257 249 247 246 240 239 241 264 263 269 287 293 309 333 268 201 214 225 254 243 321 39 45 69 57 38 48 28 289 272 159 151 153 157 177
258 259 258 257 257 257 255 254 253 253 250 245 239 237 233 235 239 249 260 257 269 278 271 291 256 248 213 221 248 245 212 38 41 81 68 51 34 33 227 227 167 139 154 137 96
257 258 259 259 258 257 257 256 253 250 250 246 243 243 236 241 245 244 253 253 247 253 268 251 244 245 210 218 266 282 269 301 55 89 76 48 29 18 123 213 220 230 177 25 28
258 258 258 258 259 259 258 256 255 254 248 246 242 245 244 246 251 244 242 240 243 240 247 238 239 238 222 242 268 262 281 268 30 100 80 59 32 32 320 201 227 272 279 339 306
260 261 260 257 257 256 256 256 254 252 249 249 247 243 247 238 243 245 238 240 241 242 230 231 245 228 231 249 253 249 275 262 228 124 56 27 41 28 25 241 210 224 258 290 313
258 258 259 259 257 256 255 255 254 252 250 247 248 245 241 239 240 243 238 238 236 241 235 246 248 240 234 235 254 251 276 267 267 277 321 22 16 26 32 16 244 214 237 266 249
260 260 257 257 253 253 254 254 253 249 248 246 249 247 244 241 241 242 234 237 237 239 236 248 258 264 256 241 257 264 268 272 272 331 323 303 6 16 27 133 176 184 237 232 224
259 258 259 259 257 253 252 251 249 246 244 245 247 251 246 245 247 241 239 232 236 238 235 236 247 248 235 234 249 257 256 256 269 286 307 256 319 5 342 141 202 225 224 229 242
263 259 259 254 255 253 252 252 249 245 241 244 244 248 248 247 246 245 240 232 230 226 227 232 239 233 229 224 236 252 247 255 278 286 299 266 348 347 322 12 181 230 236 237 250
273 273 268 259 257 256 253 249 247 246 245 243 235 241 247 251 247 244 240 230 227 227 229 225 229 232 231 216 227 244 251 249 262 284 287 215 106 304 359 25 158 348 267 241 234
305 292 270 269 260 255 253 249 244 245 248 246 235 238 241 244 246 244 235 236 231 229 229 225 224 226 223 220 223 224 231 232 251 267 263 179 170 125 15 105 128 46 2 247 243
299 301 293 279 269 263 254 250 251 248 245 243 243 237 238 241 243 243 235 229 228 232 237 227 219 220 226 218 209 219 229 225 237 250 250 203 196 188 151 172 138 218 29 3 263
281 279 281 278 273 274 270 262 256 252 244 239 238 240 238 241 235 232 233 223 225 230 235 232 224 219 216 209 212 217 216 216 238 254 255 247 207 199 177 206 270 279 229 332 335
298 290 283 276 273 272 267 259 254 258 249 241 236 236 237 231 236 239 235 227 225 228 236 236 233 209 209 210 213 221 223 229 242 247 249 255 247 219 222 218 249 274 286 356 245
300 298 296 294 287 280 273 266 254 252 253 239 239 236 235 233 231 231 238 237 229 226 228 229 227 214 212 217 222 225 228 231 244 252 247 246 259 251 232 235 245 253 272 289 335
300 306 305 307 301 295 286 271 262 250 248 242 239 240 239 237 230 228 234 235 240 241 237 232 237 227 217 210 216 220 225 231 239 243 241 247 251 254 259 265 248 254 254 253 323
302 302 306 309 300 292 283 276 271 257 245 243 240 239 243 244 239 230 226 235 232 240 241 245 239 246 239 230 221 224 227 231 232 236 241 247 255 256 250 262 270 257 245 246 225
305 301 301 305 301 292 278 270 268 258 245 241 241 241 248 251 253 248 242 240 242 237 235 234 233 240 246 252 251 246 245 245 241 238 243 245 254 264 269 254 258 265 260 256 246
Height
5905 5906 5908 5908 5910 5911 5911 5911 5911 5911 5909 5909 5909 5908 5907 5906 5906 5906 5906 5906 5905 5903 5902 5902 5901 5900 5899 5897 5894 5892 5890 5889 5887 5886 5887 5887 5886 5884 5883 5882 5882 5883 5884 5885 5885
5902 5904 5905 5906 5907 5908 5909 5910 5910 5910 5909 5908 5908 5908 5907 5906 5906 5906 5907 5905 5905 5904 5903 5901 5901 5900 5898 5896 5894 5893 5891 5890 5890 5889 5887 5887 5888 5887 5886 5884 5884 5884 5884 5885 5885
5900 5901 5903 5903 5905 5906 5907 5908 5908 5908 5907 5906 5906 5906 5907 5906 5906 5905 5906 5905 5905 5904 5904 5903 5903 5901 5899 5897 5896 5893 5892 5891 5892 5890 5890 5889 5890 5890 5889 5888 5887 5885 5886 5885 5884
5898 5899 5900 5901 5902 5903 5904 5906 5906 5906 5906 5905 5904 5905 5906 5906 5908 5904 5904 5904 5904 5904 5904 5904 5902 5901 5900 5899 5898 5895 5893 5892 5892 5890 5891 5890 5889 5890 5890 5891 5889 5886 5886 5886 5885
5895 5896 5897 5898 5899 5900 5901 5903 5904 5904 5905 5904 5903 5903 5904 5905 5905 5904 5903 5904 5904 5904 5905 5904 5904 5902 5901 5900 5898 5897 5895 5894 5893 5892 5890 5889 5888 5889 5890 5891 5891 5889 5888 5886 5886
5892 5892 5894 5895 5896 5897 5899 5900 5901 5902 5903 5903 5902 5901 5902 5903 5903 5902 5902 5902 5903 5904 5904 5904 5903 5902 5901 5901 5900 5897 5896 5895 5895 5894 5892 5891 5890 5890 5893 5895 5895 5892 5891 5889 5888
5888 5889 5891 5892 5892 5893 5895 5896 5898 5899 5900 5900 5900 5900 5901 5900 5901 5900 5900 5901 5902 5903 5903 5903 5902 5900 5900 5902 5901 5898 5897 5898 5898 5896 5893 5893 5894 5892 5893 5894 5896 5896 5893 5892 5890
5883 5885 5887 5888 5889 5890 5892 5893 5894 5896 5897 5898 5897 5897 5899 5898 5899 5899 5898 5899 5901 5901 5902 5903 5900 5900 5903 5902 5902 5899 5900 5900 5898 5896 5897 5897 5896 5894 5894 5895 5894 5895 5896 5894 5894
5878 5880 5882 5884 5885 5887 5888 5890 5891 5892 5894 5894 5895 5894 5898 5897 5898 5897 5897 5898 5899 5899 5900 5900 5900 5902 5904 5903 5903 5900 5900 5902 5900 5898 5900 5900 5899 5897 5896 5896 5895 5892 5895 5895 5894
5873 5875 5877 5879 5880 5883 5885 5886 5887 5889 5890 5890 5891 5894 5896 5896 5896 5895 5896 5896 5897 5898 5899 5901 5901 5902 5903 5904 5903 5902 5903 5903 5900 5899 5900 5898 5897 5897 5896 5896 5895 5894 5894 5895 5894
5867 5869 5871 5873 5875 5878 5881 5882 5885 5886 5885 5887 5888 5889 5891 5893 5894 5895 5895 5895 5895 5897 5898 5900 5901 5901 5902 5903 5902 5902 5904 5903 5902 5899 5898 5898 5896 5897 5894 5894 5895 5896 5897 5895 5897
5862 5864 5866 5868 5870 5872 5875 5876 5878 5881 5881 5883 5885 5886 5888 5890 5891 5894 5895 5895 5894 5895 5897 5900 5899 5899 5900 5902 5902 5902 5904 5904 5903 5900 5898 5899 5897 5894 5895 5896 5895 5895 5897 5898 5897
5856 5858 5859 5862 5864 5866 5868 5870 5872 5875 5878 5878 5881 5882 5885 5887 5887 5890 5892 5893 5893 5894 5896 5898 5898 5898 5899 5900 5901 5901 5903 5903 5903 5900 5899 5898 5898 5896 5895 5895 5896 5895 5898 5897 5897
5851 5852 5854 5857 5860 5860 5862 5864 5867 5870 5872 5874 5875 5877 5880 5881 5882 5884 5888 5890 5891 5891 5893 5895 5896 5897 5897 5898 5900 5901 5901 5901 5901 5901 5899 5898 5898 5893 5892 5892 5890 5893 5895 5896 5896
5845 5847 5848 5851 5853 5854 5856 5858 5861 5864 5866 5868 5869 5871 5873 5876 5878 5880 5883 5885 5887 5887 5892 5893 5893 5895 5897 5897 5897 5900 5899 5899 5899 5898 5898 5898 5897 5894 5891 5890 5889 5891 5893 5894 5895
5841 5841 5843 5844 5846 5848 5849 5852 5855 5859 5858 5861 5862 5864 5867 5869 5872 5874 5878 5880 5881 5883 5888 5888 5889 5893 5894 5894 5896 5898 5898 5897 5897 5895 5897 5897 5896 5895 5893 5892 5891 5891 5892 5892 5892
5836 5836 5837 5839 5840 5841 5843 5845 5849 5850 5853 5854 5856 5858 5861 5864 5866 5869 5871 5875 5877 5880 5884 5884 5886 5889 5890 5891 5892 5894 5895 5895 5895 5894 5895 5894 5896 5896 5893 5892 5892 5891 5890 5890 5890
5831 5832 5833 5834 5834 5836 5837 5840 5842 5843 5846 5849 5852 5852 5855 5858 5860 5864 5866 5869 5872 5875 5877 5879 5882 5886 5887 5888 5891 5890 5893 5893 5892 5893 5894 5893 5894 5895 5893 5892 5891 5892 5891 5891 5890
5828 5828 5828 5829 5830 5831 5833 5834 5835 5837 5840 5842 5846 5846 5848 5851 5856 5858 5861 5864 5866 5869 5872 5875 5878 5880 5883 5884 5886 5888 5890 5892 5890 5891 5892 5894 5893 5893 5893 5892 5894 5894 5891 5890 5890
5825 5825 5825 5825 5825 5826 5828 5829 5830 5831 5833 5835 5839 5841 5843 5845 5848 5851 5855 5858 5861 5862 5864 5869 5873 5875 5877 5878 5882 5884 5888 5888 5889 5889 5890 5891 5892 5892 5893 5892 5891 5892 5892 5892 5892
5823 5823 5822 5821 5822 5822 5823 5824 5824 5826 5827 5829 5831 5834 5837 5840 5843 5847 5849 5852 5854 5856 5858 5862 5866 5870 5872 5876 5879 5881 5883 5884 5885 5886 5887 5889 5891 5892 5892 5891 5891 5892 5892 5893 5893
5820 5820 5819 5818 5819 5819 5819 5820 5820 5819 5822 5824 5825 5827 5831 5834 5837 5841 5845 5847 5849 5851 5854 5857 5862 5864 5867 5870 5873 5875 5877 5879 5880 5883 5884 5885 5889 5889 5891 5892 5891 5892 5891 5892 5892
5817 5815 5815 5814 5814 5814 5814 5814 5814 5813 5817 5818 5820 5822 5824 5829 5833 5836 5840 5843 5845 5848 5851 5854 5858 5860 5862 5865 5867 5870 5872 5875 5876 5879 5881 5881 5885 5886 5889 5891 5892 5892 5891 5891 5890
5815 5813 5811 5810 5809 5809 5808 5808 5808 5808 5809 5812 5812 5816 5818 5822 5826 5831 5836 5839 5841 5843 5847 5850 5851 5856 5859 5863 5864 5866 5869 5871 5873 5875 5876 5878 5881 5882 5883 5884 5886 5889 5891 5891 5891
5811 5810 5807 5805 5803 5802 5801 5802 5803 5803 5801 5803 5805 5808 5811 5815 5822 5826 5831 5835 5836 5839 5842 5846 5847 5850 5853 5855 5858 5862 5864 5866 5868 5870 5872 5874 5877 5879 5880 5880 5881 5881 5882 5884 5887
5806 5805 5803 5801 5798 5797 5795 5796 5797 5796 5796 5797 5799 5801 5804 5808 5814 5821 5825 5828 5832 5834 5837 5840 5844 5845 5848 5851 5853 5855 5857 5860 5862 5865 5867 5869 5872 5876 5877 5877 5877 5878 5878 5879 5881
5802 5799 5798 5797 5794 5793 5792 5791 5791 5791 5790 5791 5793 5797 5799 5801 5807 5813 5818 5822 5827 5830 5832 5835 5837 5841 5842 5844 5847 5851 5853 5856 5857 5859 5861 5864 5868 5869 5872 5872 5873 5873 5874 5874 5875